Aérodrome :
LOGIN :

S'inscrire | Disclaimer

   EN    FR    IT 

 










Légende :    VFR   VFR Marginal   IFR   IFR Intensif   IFR Très Intensif
Visi : 
Plafond : 
>= 8 km
>= 3000ft
5 à 8 km
1000 à 3000 ft
1500m à 5 km
500 à 1000 ft
800 à 1500m
200 à 500 ft
< 800m
< 200 ft
Symboles :   Orages  Brouillard  Fortes neiges  Fortes précipitations  Vent > 20 kt
SIGMETs :   Divers  Orages  Givrage  Turbulence  Onde Orograph.  Cendres Volcan.







- Altitude de l'aérodrome : 7 ft
- Code IATA : XHE
- Voir les cartes d'approche


LFTH - Hyeres

DERNIER METAR :
  • 211930Z AUTO 21010KT CAVOK 24/17 Q1013 NOSIG

METARs EXPIRÉS :
  • 211900Z AUTO 23010KT CAVOK 25/16 Q1013 NOSIG
  • 211830Z AUTO 23012KT CAVOK 26/15 Q1013 NOSIG
  • 211800Z AUTO 24014KT 220V280 CAVOK 28/14 Q1013 NOSIG
  • 211730Z AUTO 25014KT 230V290 CAVOK 28/14 Q1013 NOSIG
  • 211700Z AUTO 26012KT CAVOK 28/14 Q1013 NOSIG

TAF TAF LFTH
Valide du 21 à 09h jusqu'au 22 à 09h UTC


210800Z 2109/2209 21005KT CAVOK
BECMG 2113/2115 24015G25KT
BECMG 2123/2201 29008KT
BECMG 2205/2207 32005G15KT
Pas de NOTAMs connus pour ce terrain.



MET'MAP, la Météo Aéronautique d'un coup d'oeil ! - Copyright ORBIFLY Décembre 2007 - Disclaimer

ORBIFLY MET'MAP TEAM :

Programmation & Développement : Alexandra Zaïnal
Conception & Développement : Baudouin d'Aumeries
Co-Programmation & Développement : Marc-Olivier Méhu
Soutien technique & logistique : Manuel Goepfert

Contact : metmap@orbifly.com




SOURCES & CREDITS :

   NOAA